Flag for Germany Weather past 2 weeks in Esslingen, Baden-Württemberg, Germany

Now
36 °F

Scattered clouds.


Feels Like: 29 °F
Forecast: 31 / 38 °F
Wind: 8 mph from West

Location: Stuttgart-Echterdingen

Current Time: Dec 26, 2014 at 11:11:12 AM

Latest Report: Dec 26, 2014 at 10:20 AM


Visibility: N/A

Pressure: 30.39 "Hg

Humidity: 87%

Dew point: 32 °F

Location of EsslingenLocation

Historic Weather in Esslingen — Graph

°F

Esslingen temperature yesterday

Maximum temperature yesterday: 45 °F (at 12:20 AM)
Minimum temperature yesterday: 37 °F (at 8:20 PM)
Average temperature yesterday: 41 °F

Past Weeks' High & Low Weather Summary

 TemperatureHumidityPressure
High54 °F (Dec 13, 3:20 PM)100% (Dec 14, 2:50 PM)30.51 "Hg (Dec 14, 2:50 PM)
Low28 °F (Dec 24, 3:20 AM)38% (Dec 23, 2:20 PM)29.74 "Hg (Dec 12, 4:50 PM)
Average44 °F80%30.10 "Hg
* Reported Dec 11 9:20 AM — Dec 26 9:50 AM, Esslingen, Weather by CustomWeather, © 2014

Note: Actual official high and low records may vary slightly from our data, if they occured in-between our weather recording intervals... More about our weather records

Advertising

Esslingen weather history for previous 24 hours

 ConditionsComfort  
Time TempWeatherWind HumidityBarometerVisibility
9:50 AM
Dec 26
34 °FScattered clouds.8 mph93%30.39 "HgN/A
9:20 AM34 °FScattered clouds.8 mph93%30.39 "HgN/A
8:50 AM34 °FScattered clouds.1 mph93%30.39 "HgN/A
8:20 AM34 °FBroken clouds.2 mph93%30.39 "HgN/A
7:50 AM34 °FSnow flurries. Partly cloudy.1 mph93%30.36 "HgN/A
7:20 AM34 °FPassing clouds.3 mph93%30.36 "HgN/A
6:50 AM34 °FLight snow. Partly cloudy.5 mph93%30.36 "HgN/A
6:20 AM34 °FLight snow. Partly cloudy.5 mph93%30.36 "HgN/A
5:50 AM34 °FLight snow. Partly cloudy.3 mph93%30.36 "Hg6 mi
5:20 AM32 °FLight snow. Partly cloudy.1 mph100%30.36 "Hg1 mi
4:50 AM32 °FSnow. Partly cloudy.1 mph100%30.36 "Hg1 mi
4:20 AM32 °FSnow. Partly cloudy.3 mph100%30.36 "Hg1 mi
3:20 AM34 °FLight rain. Partly cloudy.3 mph93%30.36 "Hg5 mi
2:50 AM36 °FLight rain. Partly cloudy.5 mph93%30.36 "HgN/A
2:20 AM36 °FLight rain. Partly cloudy.8 mph93%30.36 "HgN/A
1:50 AM37 °FSprinkles. Partly cloudy.8 mph87%30.33 "HgN/A
1:20 AM37 °FPartly cloudy.8 mph87%30.33 "HgN/A
12:50 AM37 °FSprinkles. Partly cloudy.8 mph87%30.33 "HgN/A
12:20 AM37 °FSprinkles. Partly cloudy.7 mph87%30.33 "HgN/A
11:20 PM
Dec 25
37 °FPartly cloudy.8 mph81%30.33 "HgN/A
10:50 PM37 °FLight rain. Partly cloudy.5 mph81%30.33 "HgN/A
10:20 PM37 °FPartly cloudy.5 mph81%30.33 "HgN/A
9:50 PM37 °FLight rain. Partly cloudy.7 mph81%30.33 "HgN/A
9:20 PM37 °FLight rain. Partly cloudy.9 mph81%30.33 "HgN/A
8:50 PM39 °FClear.9 mph75%30.33 "Hg10 mi
8:20 PM37 °FPassing clouds.9 mph81%30.33 "HgN/A
7:50 PM39 °FPassing clouds.9 mph75%30.33 "HgN/A
7:20 PM39 °FPassing clouds.13 mph75%30.33 "HgN/A
6:50 PM39 °FPassing clouds.12 mph70%30.33 "HgN/A
6:20 PM39 °FPassing clouds.9 mph75%30.30 "HgN/A
5:50 PM39 °FPassing clouds.13 mph70%30.30 "HgN/A
5:20 PM39 °FPassing clouds.15 mph70%30.30 "HgN/A
4:20 PM41 °FPartly sunny.13 mph70%30.30 "HgN/A
3:50 PM41 °FPartly sunny.10 mph66%30.30 "HgN/A
3:20 PM41 °FPartly sunny.10 mph66%30.30 "HgN/A
2:50 PM41 °FPartly sunny.12 mph70%30.30 "HgN/A
2:20 PM41 °FScattered clouds.10 mph66%30.27 "HgN/A
1:50 PM41 °FBroken clouds.14 mph70%30.27 "HgN/A
1:20 PM41 °FBroken clouds.15 mph70%30.27 "HgN/A
12:50 PM41 °FBroken clouds.16 mph70%30.30 "HgN/A
12:20 PM39 °FPartly sunny.14 mph75%30.30 "HgN/A
11:50 AM39 °FPartly sunny.13 mph75%30.30 "HgN/A
11:20 AM39 °FPartly sunny.13 mph75%30.30 "HgN/A
Weather by CustomWeather, © 2014

See weather overviewHow to use our weather pages